Weather Roundup
Issued by NWS Chicago, IL

Home | Current Version | Previous Version | Text Only | Print | Product List | Glossary Off
Versions: 1 2 3 4 5 6 7 8 9 10 11 12 13 14 15 16 17 18 19 20 21 22 23 24 25 26 27 28 29 30 31 32 33 34 35 36 37 38 39 40 41 42 43 44 45 46 47 48 49 50

000
NZUS59 KLOT 281458
HRRLOT

CHICAGO AREA WEATHER ROUNDUP
NATIONAL WEATHER SERVICE CHICAGO/ROMEOVILLE IL
900 AM CST WED JAN 28 2015

NOTE: "FAIR" INDICATES FEW OR NO CLOUDS BELOW 12,000 FEET WITH NO
SIGNIFICANT WEATHER AND/OR OBSTRUCTIONS TO VISIBILITY.

* THESE STATIONS ARE NOT UNDER NWS QUALITY CONTROL. THEY ALSO MAY NOT
  REPORT WEATHER SUCH AS PRECIPITATION OR FOG.

ILZ005-006-012>014-019>023-281600-
NORTHEAST ILLINOIS

CITY           SKY/WX    TMP DP  RH WIND       PRES   REMARKS
OHARE          PTSUNNY   24  16  71 S10       30.26F WCI  14
MIDWAY         PTSUNNY   26  16  65 S9        30.27F WCI  17
AURORA         SUNNY     25  18  74 SE9       30.25F WCI  15
WAUKEGAN       NOT AVBL
DUPAGE AIRPORT SUNNY     24  17  74 S8        30.25F WCI  15
WHEELING       MOSUNNY   25  17  72 S7        30.28F WCI  17
NORTHERLY IS     N/A     26  14  60 S8          N/A  WCI  18
$$

WIZ051-052-058>065-066-070>072-281600-
SOUTHEAST WISCONSIN

CITY           SKY/WX    TMP DP  RH WIND       PRES   REMARKS
MILWAUKEE      PTSUNNY   27  20  75 S7        30.24F WCI  19
KENOSHA*       MOSUNNY   25  19  78 S10       30.25F WCI  15
RACINE*        PTSUNNY   27  21  78 SW6       30.27S WCI  20
WAUKESHA       MOSUNNY   23  18  80 S5        30.23F WCI  17
$$

INZ001>003-010>013-019-020-281600-
NORTHWEST INDIANA

CITY           SKY/WX    TMP DP  RH WIND       PRES   REMARKS
GARY*          MOSUNNY   27  10  50 SE12      30.30F WCI  16
MICHIGAN CITY* NOT AVBL
RENSSELAER*    NOT AVBL
$$

LMZ740>746-281600-
SOUTHERN LAKE MICHIGAN

STATION/POSITION TIME  SKY/WX   TEMP WIND        PRES    VSBY
                                AIR  DIR/SP/G
                 (UTC)          (F)  (DEG/KT/KT) (MB)    (MI)
HARRISON CRIB    1400            25  170/ 16/ 19   N/A
BURNHAM HARBOR   1400            25  190/  4/  9   N/A
CALUMET HARBOR   1400            23  170/ 10/ 12   N/A
BURNS HARBOR     NOT AVBL
MICHIGAN CITY    1400            22  140/  8/ 10   N/A
$$

ABBREVIATIONS USED IN REMARKS
   TC - TEMPERATURE IN CELSIUS
  WCI - WIND CHILL INDEX
   HX - HEAT INDEX
  VSB - VISIBILITY
$$


USA.gov is the U.S. government's official web portal to all federal, state and local government web resources and services.